[[{"header":{"parameterUnit":"m.s-1","parameterCategory":2,"la1":30.2991,"la2":30.254,"lo1":-89.0895,"lo2":-89.0444,"dy":0.0017,"dx":0.0017,"nx":28,"ny":28,"refTime":"2024-08-14T03:00:00:Z","depth":"0","parameterNumber":2,"parameterNumberName":"U-component_of_CURRENTS"},"data":[0,0,0,0,0,0,0,0,0,0,0,0,0,0,0,0,0,0,0,0,0,0,0,0,0,0,0,0,0,0,0,0,0,0,0,0,0,0,0,0,0,0,0,0,0,0,0,0,0,0,0,0,0,0,0,0,0,0,-0.0675,-0.0675,0,-0.0666,-0.0665,-0.0665,-0.0571,-0.0569,-0.0568,-0.0566,-0.0549,-0.055,-0.0551,0,0,0,0,0,0,0,0,0,0,0,0,0,-0.0534,-0.0537,-0.0675,-0.0675,-0.0676,-0.0666,-0.0665,-0.0664,-0.0571,-0.0569,-0.0567,-0.0565,-0.0549,-0.055,-0.0551,0,0,0,0,0,0,0,0,0,0,0,0,0,-0.056,-0.0538,-0.0675,-0.0634,-0.0631,-0.0666,-0.0665,-0.0664,-0.0572,-0.0569,-0.0567,-0.0565,-0.0548,-0.055,-0.0552,-0.0611,0,0,-0.0557,-0.0557,0,0,0,0,0,0,0,0,-0.0559,-0.0564,-0.0639,-0.0637,-0.0633,-0.0624,-0.061,-0.0649,-0.0572,-0.0586,-0.0566,-0.0563,-0.058,-0.0579,-0.0572,-0.061,-0.061,-0.0557,-0.0558,-0.0558,-0.0559,0,0,0,0,0,0,0,-0.0557,-0.0564,-0.0664,-0.064,-0.0637,-0.059,-0.0591,-0.0616,-0.0591,-0.0585,-0.058,-0.0592,-0.0577,-0.0571,-0.0571,-0.0609,-0.0557,-0.0558,-0.0559,-0.056,-0.0741,-0.0745,0,0,0,0,0,0,-0.0581,-0.0564,-0.0664,-0.0664,-0.0598,-0.0596,-0.0596,-0.0623,-0.0591,-0.0586,-0.0594,-0.0588,-0.0569,-0.0569,-0.057,-0.0619,-0.0558,-0.056,-0.0561,-0.0737,-0.0742,-0.0746,0,0,0,0,0,0,-0.0579,-0.0591,-0.0664,-0.0618,-0.0625,-0.0602,-0.0632,-0.0625,-0.0587,-0.0599,-0.0592,-0.0562,-0.0567,-0.0568,-0.0611,-0.0618,-0.0561,-0.0562,-0.0733,-0.0739,-0.0744,-0.0729,0,0,0,0,0,0,-0.0575,-0.059,-0.0605,-0.0621,-0.0629,-0.0677,-0.0635,-0.0626,-0.0604,-0.0595,-0.0571,-0.0568,-0.0565,-0.061,-0.0613,-0.0619,-0.0563,-0.0728,-0.0735,-0.0742,-0.0725,-0.0734,-0.0742,0,0,0,0,0,-0.057,-0.058,-0.0607,-0.0618,-0.0655,-0.0678,-0.0676,-0.0646,-0.0605,-0.0598,-0.0608,-0.0567,-0.0658,-0.0614,-0.0617,-0.0624,-0.0724,-0.0733,-0.0742,-0.0721,-0.0732,-0.0741,0,0,0,0,0,0,-0.0526,-0.0574,-0.0602,-0.0629,-0.0661,-0.0664,-0.0658,-0.0638,-0.0635,-0.0629,-0.0611,-0.0613,-0.0658,-0.0667,-0.0619,-0.0711,-0.0687,-0.0697,-0.0671,-0.0681,-0.0689,-0.0666,-0.0565,0,0,0,0,0,-0.0536,-0.0549,-0.0608,-0.0629,-0.0653,-0.0657,-0.0656,-0.065,-0.0659,-0.0649,-0.0644,-0.0666,-0.0706,-0.0709,-0.0752,-0.079,-0.0774,-0.0807,-0.0816,-0.0822,-0.0815,-0.0815,-0.0819,-0.0774,-0.0774,-0.0774,0,0,-0.0526,-0.0555,-0.0563,-0.062,-0.0641,-0.0676,-0.0646,-0.0659,-0.066,-0.0657,-0.0655,-0.0696,-0.0732,-0.0784,-0.0804,-0.0778,-0.0832,-0.0833,-0.0836,-0.0826,-0.0824,-0.0827,-0.083,-0.078,-0.0779,-0.0778,0,0,-0.0523,-0.055,-0.0577,-0.0612,-0.0665,-0.0669,-0.0672,-0.0696,-0.0675,-0.0706,-0.0721,-0.0772,-0.0799,-0.0841,-0.086,-0.0948,-0.0887,-0.0961,-0.0956,-0.0956,-0.0957,-0.0958,-0.0941,-0.094,-0.0948,-0.0948,-0.0948,0,-0.0525,-0.0566,-0.0585,-0.0637,-0.0656,-0.0666,-0.0703,-0.0698,-0.0723,-0.0721,-0.0706,-0.0795,-0.0826,-0.089,-0.0929,-0.0956,-0.0936,-0.0897,-0.0957,-0.0958,-0.0959,-0.0941,-0.0941,-0.0949,-0.0949,-0.0949,-0.0949,0,-0.0563,-0.0597,-0.0613,-0.0679,-0.0698,-0.0727,-0.0754,-0.076,-0.0735,-0.0732,-0.0779,-0.084,-0.0882,-0.0917,-0.094,-0.0988,-0.0965,-0.0968,-0.0906,-0.0961,-0.0941,-0.0941,-0.0949,-0.0949,-0.0949,-0.0949,0,0,-0.0562,-0.0631,-0.0635,-0.0656,-0.0721,-0.0726,-0.0756,-0.0773,-0.0765,-0.0788,-0.0782,-0.0879,-0.0891,-0.0923,-0.0971,-0.0982,-0.0986,-0.0971,-0.097,-0.0907,-0.0958,-0.0853,-0.0842,-0.0975,-0.0975,-0.0975,-0.0937,0,-0.0594,-0.0655,-0.0686,-0.0715,-0.0744,-0.0772,-0.0789,-0.0801,-0.0794,-0.0795,-0.0834,-0.0863,-0.0893,-0.0925,-0.0941,-0.0975,-0.0984,-0.0994,-0.0955,-0.0954,-0.0815,-0.0839,-0.0696,-0.0641,-0.0936,-0.0936,-0.0935,0,-0.0627,-0.0649,-0.0697,-0.0714,-0.0733,-0.0746,-0.0752,-0.0776,-0.0798,-0.0801,-0.083,-0.0848,-0.0892,-0.0911,-0.0936,-0.0928,-0.0949,-0.0967,-0.0965,-0.0867,-0.0848,-0.0642,-0.0628,-0.0673,-0.0934,-0.0934,-0.0934,0,-0.0582,-0.0638,-0.065,-0.0671,-0.072,-0.0721,-0.0732,-0.0765,-0.0775,-0.08,-0.081,-0.0838,-0.0852,-0.087,-0.0905,-0.0907,-0.0915,-0.092,-0.0851,-0.0843,-0.0715,-0.0695,-0.0696,-0.0951,-0.0951,-0.0951,-0.0951,0,-0.0596,-0.0599,-0.0615,-0.063,-0.0617,-0.0667,-0.0665,-0.0699,-0.0742,-0.0746,-0.08,-0.0806,-0.0839,-0.0848,-0.088,-0.0838,-0.0885,-0.0841,-0.0823,-0.071,-0.0691,-0.0719,-0.0816,-0.095,-0.095,-0.095,-0.0951,0,-0.0572,-0.06,-0.0598,-0.0613,-0.0607,-0.0593,-0.0619,-0.0619,-0.0683,-0.0697,-0.0707,-0.0753,-0.0744,-0.0789,-0.0814,-0.0785,-0.0773,-0.0784,-0.0638,-0.0602,-0.052,-0.0622,-0.0635,-0.0609,-0.0646,-0.0643,-0.0641,0,-0.0581,-0.0575,-0.0559,-0.0541,-0.0544,-0.0528,-0.0525,-0.0578,-0.0585,-0.0652,-0.0648,-0.0667,-0.0654,-0.0636,-0.0595,-0.0584,-0.0707,-0.046,-0.0448,-0.0481,-0.0585,-0.0669,-0.0654,-0.0283,-0.0278,-0.0274,-0.027,0,-0.0559,-0.0541,-0.0528,-0.0501,-0.047,-0.045,-0.0442,-0.0443,-0.0506,-0.0517,-0.0521,-0.052,-0.0487,-0.0374,-0.0365,-0.0351,-0.0433,-0.0368,-0.0446,-0.033,-0.0381,-0.0356,-0.0352,-0.0233,-0.0236,-0.0239,-0.0241,-0.0243,-0.0518,-0.0489,-0.0464,-0.0427,-0.041,-0.0379,-0.0346,-0.0337,-0.0333,-0.034,-0.0367,-0.032,-0.0221,-0.0146,-0.0148,-0.0043,-0.0192,-0.0024,-0.0153,-0.024,-0.0193,-0.0092,0.0071,0.0069,0.0068,0.0066,0.0065,0,-0.0478,-0.0432,-0.0392,-0.0355,-0.0332,-0.0336,-0.03,-0.0259,-0.0213,-0.018,-0.0159,-0.0032,0.0082,0.0114,0.0221,0.0174,0.015,0.0104,-0.0002,-0.0,0.0085,0.0127,0.0364,0.0364,0.0364,0.0364,0.0364,0.0364,-0.0456,-0.0389,-0.0355,-0.0281,-0.0267,-0.0217,-0.0186,-0.0119,-0.0072,0.0048,0.0134,0.0162,0.0225,0.0146,0.0147,0.0154,0.0019,0.0031,-0.0106,-0.0078,-0.0101,-0.0123,-0.0101,0.0083,0.0083,-0.0063,-0.0065,-0.0067]},{"header":{"parameterUnit":"m.s-1","parameterCategory":2,"la1":30.2991,"la2":30.254,"lo1":-89.0895,"lo2":-89.0444,"dy":0.0017,"dx":0.0017,"nx":28,"ny":28,"refTime":"2024-08-14T03:00:00:Z","depth":"0","parameterNumber":3,"parameterNumberName":"V-component_of_CURRENTS"},"data":[0,0,0,0,0,0,0,0,0,0,0,0,0,0,0,0,0,0,0,0,0,0,0,0,0,0,0,0,0,0,0,0,0,0,0,0,0,0,0,0,0,0,0,0,0,0,0,0,0,0,0,0,0,0,0,0,0,0,-0.0242,-0.0242,0,-0.0173,-0.0171,-0.017,-0.0061,-0.006,-0.0059,-0.0058,0.0062,0.0064,0.0066,0,0,0,0,0,0,0,0,0,0,0,0,0,-0.0212,-0.0213,-0.0242,-0.0242,-0.0242,-0.0173,-0.0171,-0.0169,-0.0061,-0.006,-0.0058,-0.0057,0.0061,0.0063,0.0066,0,0,0,0,0,0,0,0,0,0,0,0,0,-0.0183,-0.0213,-0.0242,-0.0187,-0.0182,-0.0174,-0.0171,-0.0169,-0.0061,-0.006,-0.0058,-0.0057,0.006,0.0063,0.0066,0.0055,0,0,0.0076,0.0078,0,0,0,0,0,0,0,0,-0.0185,-0.0183,-0.0195,-0.0191,-0.0185,-0.0133,-0.0118,-0.0095,-0.0062,-0.0097,-0.0058,-0.0056,-0.0007,0.0002,0.0025,0.006,0.0066,0.0077,0.0079,0.008,0.0081,0,0,0,0,0,0,0,-0.0187,-0.0185,-0.0204,-0.0195,-0.019,-0.0143,-0.0137,-0.0112,-0.0053,-0.0093,-0.0088,-0.0097,-0.0002,0.0022,0.0029,0.0067,0.0077,0.0079,0.0082,0.0083,0.0096,0.0094,0,0,0,0,0,0,-0.0221,-0.0188,-0.0207,-0.0203,-0.0193,-0.0146,-0.0138,-0.0143,-0.0054,-0.0042,-0.0098,-0.0092,0.0016,0.0025,0.0033,0.0028,0.008,0.0083,0.0085,0.0097,0.0095,0.0093,0,0,0,0,0,0,-0.0221,-0.0224,-0.021,-0.0202,-0.0198,-0.015,-0.0155,-0.0143,-0.011,-0.006,-0.0044,-0.0079,0.0017,0.0029,0.0059,0.0033,0.0085,0.0088,0.0099,0.0097,0.0094,0.0014,0,0,0,0,0,0,-0.022,-0.0224,-0.0244,-0.0204,-0.02,-0.0215,-0.0157,-0.0143,-0.0124,-0.0114,-0.0039,-0.0026,0.0019,0.0054,0.0062,0.0038,0.009,0.0101,0.0098,0.0095,0.0019,0.0009,0.0001,0,0,0,0,0,-0.0219,-0.0251,-0.0245,-0.0248,-0.0228,-0.0218,-0.021,-0.0163,-0.0125,-0.0123,-0.0065,-0.0028,0.004,0.0056,0.0066,0.0042,0.0103,0.0099,0.0095,0.0023,0.0011,0.0001,0,0,0,0,0,0,-0.0255,-0.0244,-0.0235,-0.0264,-0.0252,-0.0203,-0.0208,-0.017,-0.0121,-0.0101,-0.0038,-0.0022,-0.0012,0.0022,0.0038,0.0033,0.0072,0.007,0.0013,0.0003,-0.0006,-0.0026,0.0093,0,0,0,0,0,-0.0278,-0.0287,-0.0276,-0.0298,-0.0299,-0.0252,-0.0244,-0.0205,-0.0162,-0.0136,-0.0093,-0.0048,-0.0024,-0.0002,0.0023,0.0029,0.0053,0.0015,0.0006,-0.0002,-0.0014,0.0017,0.0011,0.0081,0.0081,0.0081,0,0,-0.0301,-0.0296,-0.0303,-0.0305,-0.0287,-0.0294,-0.0239,-0.0225,-0.0222,-0.0135,-0.0118,-0.0079,-0.0031,-0.0025,-0.0019,0.0006,-0.0016,-0.0007,-0.0013,-0.0021,0.0013,0.0006,0.0,0.0079,0.0079,0.008,0,0,-0.0337,-0.0347,-0.0361,-0.0354,-0.0341,-0.0323,-0.0324,-0.0283,-0.0259,-0.0241,-0.0185,-0.0156,-0.0119,-0.0087,-0.0066,-0.0112,-0.0069,-0.0115,-0.0165,-0.0135,-0.0141,-0.0145,-0.0148,-0.0151,-0.0113,-0.0113,-0.0113,0,-0.0365,-0.038,-0.0366,-0.0373,-0.0375,-0.0342,-0.0351,-0.0337,-0.0289,-0.0285,-0.0249,-0.0193,-0.0149,-0.0137,-0.0154,-0.0131,-0.0119,-0.0124,-0.0146,-0.0149,-0.0152,-0.0154,-0.0157,-0.0117,-0.0117,-0.0116,-0.0116,0,-0.0407,-0.0416,-0.0426,-0.0428,-0.0429,-0.0433,-0.0421,-0.0422,-0.0394,-0.0374,-0.036,-0.0292,-0.0258,-0.0247,-0.021,-0.022,-0.0209,-0.0164,-0.0115,-0.0164,-0.0163,-0.0165,-0.0123,-0.0122,-0.0121,-0.0119,0,0,-0.0464,-0.0458,-0.046,-0.0457,-0.0451,-0.0453,-0.0476,-0.0489,-0.0495,-0.0464,-0.0461,-0.0423,-0.0386,-0.0361,-0.0309,-0.0281,-0.0294,-0.0241,-0.0237,-0.0241,-0.0258,-0.0231,-0.023,-0.0248,-0.0248,-0.0249,-0.0258,0,-0.0498,-0.0522,-0.0507,-0.0526,-0.0536,-0.052,-0.0541,-0.0543,-0.0536,-0.0536,-0.0488,-0.046,-0.0431,-0.0393,-0.0376,-0.0299,-0.0298,-0.0297,-0.0214,-0.0213,-0.0178,-0.023,-0.0107,-0.0103,-0.026,-0.026,-0.026,0,-0.0536,-0.0545,-0.0571,-0.0559,-0.0564,-0.0575,-0.0597,-0.0605,-0.0614,-0.0599,-0.0585,-0.0541,-0.0511,-0.0456,-0.0398,-0.0399,-0.0358,-0.0302,-0.03,-0.0246,-0.0188,-0.0075,-0.0099,0.0122,-0.0262,-0.0262,-0.0261,0,-0.0575,-0.058,-0.0603,-0.0602,-0.0601,-0.0611,-0.0618,-0.0631,-0.0637,-0.0633,-0.062,-0.0593,-0.0538,-0.0497,-0.0424,-0.0402,-0.0357,-0.0297,-0.025,-0.0249,-0.0113,-0.0099,0.0095,-0.0278,-0.0278,-0.0278,-0.0278,0,-0.061,-0.0617,-0.0621,-0.0634,-0.0654,-0.0636,-0.0659,-0.0666,-0.0665,-0.067,-0.0648,-0.0626,-0.054,-0.0507,-0.0456,-0.0378,-0.039,-0.028,-0.0248,-0.0142,-0.0131,0.0093,0.0125,-0.0278,-0.0278,-0.0278,-0.0278,0,-0.0624,-0.0637,-0.0648,-0.066,-0.0669,-0.0677,-0.0682,-0.0694,-0.069,-0.0689,-0.068,-0.0643,-0.0607,-0.0562,-0.0472,-0.0392,-0.0219,-0.0304,-0.0211,-0.0167,0.0113,0.0132,0.0213,0.0319,-0.023,-0.0229,-0.0229,0,-0.0634,-0.0646,-0.0669,-0.0682,-0.0684,-0.0698,-0.071,-0.0712,-0.0728,-0.0697,-0.0701,-0.0663,-0.0658,-0.0557,-0.0431,-0.0364,-0.0229,-0.0148,-0.0071,0.013,0.0176,0.0165,0.0249,0.0066,0.0068,0.0071,0.0073,0,-0.0632,-0.0637,-0.0646,-0.0688,-0.0705,-0.0719,-0.0742,-0.0761,-0.0752,-0.0745,-0.0723,-0.0708,-0.0624,-0.0481,-0.038,-0.0285,0.0022,-0.0096,0.0119,0.041,0.0406,0.0525,0.0041,0.0094,0.0092,0.009,0.0089,0.0088,-0.0615,-0.0619,-0.0641,-0.0675,-0.0698,-0.0728,-0.0738,-0.0759,-0.0767,-0.0744,-0.0741,-0.0704,-0.0446,-0.0299,-0.0187,0.0253,0.0109,0.0454,0.0449,0.0414,0.0553,0.0079,0.0169,0.0167,0.0166,0.0164,0.0163,0,-0.0587,-0.0603,-0.0633,-0.067,-0.0691,-0.0711,-0.0745,-0.0741,-0.0742,-0.0734,-0.0714,-0.051,-0.0193,0.0094,0.0622,0.0839,0.0891,0.0963,0.1047,0.1101,0.0731,0.0793,0.1016,0.1016,0.1016,0.1015,0.1015,0.1015,-0.057,-0.0591,-0.0616,-0.0652,-0.0678,-0.0685,-0.0696,-0.0686,-0.0685,-0.0619,-0.0553,-0.0519,0.0036,0.0759,0.1364,0.1428,0.1594,0.1502,0.1548,0.1394,0.135,0.1308,0.1385,0.1729,0.1729,0.2009,0.2012,0.2014]}],[{"header":{"parameterUnit":"m.s-1","parameterCategory":2,"la1":30.2991,"la2":30.254,"lo1":-89.0895,"lo2":-89.0444,"dy":0.0017,"dx":0.0017,"nx":28,"ny":28,"refTime":"2024-08-14T03:00:00:Z","depth":"2","parameterNumber":2,"parameterNumberName":"U-component_of_CURRENTS"},"data":[0,0,0,0,0,0,0,0,0,0,0,0,0,0,0,0,0,0,0,0,0,0,0,0,0,0,0,0,0,0,0,0,0,0,0,0,0,0,0,0,0,0,0,0,0,0,0,0,0,0,0,0,0,0,0,0,0,0,-0.3229,-0.3229,0,-0.328,-0.3281,-0.3281,-0.3243,-0.3242,-0.324,-0.3239,-0.3206,-0.3206,-0.3206,0,0,0,0,0,0,0,0,0,0,0,0,0,-0.3001,-0.3005,-0.3228,-0.3229,-0.323,-0.328,-0.3281,-0.3281,-0.3244,-0.3242,-0.324,-0.3238,-0.3205,-0.3206,-0.3206,0,0,0,0,0,0,0,0,0,0,0,0,0,-0.3078,-0.3007,-0.3228,-0.322,-0.3219,-0.328,-0.3281,-0.3281,-0.3244,-0.3242,-0.324,-0.3238,-0.3205,-0.3206,-0.3206,-0.3253,0,0,-0.3208,-0.3209,0,0,0,0,0,0,0,0,-0.3074,-0.3087,-0.322,-0.322,-0.322,-0.3256,-0.3188,-0.3269,-0.3244,-0.3232,-0.3239,-0.3237,-0.3218,-0.3217,-0.3229,-0.3251,-0.325,-0.3208,-0.3209,-0.3209,-0.3209,0,0,0,0,0,0,0,-0.3069,-0.3084,-0.3246,-0.3221,-0.3221,-0.318,-0.3189,-0.3203,-0.3232,-0.3233,-0.3231,-0.3242,-0.3216,-0.3229,-0.3228,-0.325,-0.3208,-0.3209,-0.3209,-0.321,-0.3253,-0.3254,0,0,0,0,0,0,-0.3077,-0.308,-0.3245,-0.3248,-0.3144,-0.3187,-0.3197,-0.3244,-0.3234,-0.3232,-0.3243,-0.324,-0.3229,-0.3227,-0.3226,-0.3205,-0.3209,-0.321,-0.321,-0.3253,-0.3254,-0.3254,0,0,0,0,0,0,-0.3072,-0.3093,-0.3243,-0.3164,-0.318,-0.3194,-0.3247,-0.3246,-0.324,-0.3244,-0.3239,-0.3235,-0.3227,-0.3225,-0.3225,-0.3206,-0.321,-0.3211,-0.3252,-0.3253,-0.3254,-0.321,0,0,0,0,0,0,-0.3066,-0.3092,-0.3112,-0.3167,-0.3186,-0.3259,-0.3249,-0.3249,-0.3252,-0.3247,-0.3235,-0.3231,-0.3225,-0.3224,-0.3225,-0.3207,-0.3211,-0.3251,-0.3252,-0.3254,-0.3211,-0.321,-0.3209,0,0,0,0,0,-0.3059,-0.3097,-0.3114,-0.3133,-0.3221,-0.326,-0.3264,-0.3263,-0.3254,-0.3249,-0.3246,-0.323,-0.3234,-0.3225,-0.3227,-0.3208,-0.325,-0.3252,-0.3254,-0.3211,-0.321,-0.3209,0,0,0,0,0,0,-0.2994,-0.31,-0.3118,-0.3184,-0.3211,-0.3253,-0.3238,-0.3261,-0.3259,-0.3245,-0.3244,-0.3241,-0.3233,-0.3241,-0.3231,-0.323,-0.3239,-0.3241,-0.3206,-0.3205,-0.3204,-0.3192,-0.3212,0,0,0,0,0,-0.3,-0.306,-0.3131,-0.3172,-0.3178,-0.3209,-0.322,-0.3237,-0.3252,-0.3248,-0.3246,-0.3246,-0.325,-0.324,-0.3249,-0.3251,-0.3205,-0.3242,-0.3241,-0.324,-0.3235,-0.3159,-0.3149,-0.326,-0.326,-0.326,0,0,-0.2977,-0.3047,-0.3074,-0.3162,-0.3167,-0.3185,-0.3206,-0.3223,-0.3234,-0.3247,-0.3233,-0.3244,-0.3254,-0.3249,-0.3246,-0.3244,-0.3179,-0.3242,-0.3241,-0.3236,-0.3159,-0.3148,-0.3138,-0.3261,-0.3261,-0.3261,0,0,-0.294,-0.3022,-0.3035,-0.3073,-0.3114,-0.3154,-0.3159,-0.3203,-0.3202,-0.3222,-0.3227,-0.3224,-0.3237,-0.3231,-0.3232,-0.3237,-0.3183,-0.3247,-0.322,-0.3146,-0.3135,-0.3125,-0.3017,-0.2998,-0.3239,-0.3239,-0.3239,0,-0.2893,-0.297,-0.3033,-0.3048,-0.3078,-0.3137,-0.3143,-0.3164,-0.3207,-0.3202,-0.3205,-0.3213,-0.3222,-0.3205,-0.3215,-0.3228,-0.3171,-0.3216,-0.3139,-0.3129,-0.3119,-0.3011,-0.299,-0.3237,-0.3237,-0.3237,-0.3237,0,-0.2884,-0.2926,-0.2926,-0.299,-0.3013,-0.3048,-0.3095,-0.3108,-0.3131,-0.3155,-0.3144,-0.3161,-0.3161,-0.3168,-0.3196,-0.3147,-0.3122,-0.3146,-0.3128,-0.3104,-0.2993,-0.2972,-0.3234,-0.3235,-0.3235,-0.3236,0,0,-0.2799,-0.2909,-0.2888,-0.2924,-0.3011,-0.3031,-0.304,-0.3075,-0.3066,-0.3091,-0.3061,-0.3089,-0.3101,-0.3107,-0.313,-0.3081,-0.2965,-0.3091,-0.3088,-0.2959,-0.2764,-0.2625,-0.2588,-0.2969,-0.2966,-0.2964,-0.27,0,-0.2759,-0.2802,-0.2861,-0.2881,-0.292,-0.2984,-0.2985,-0.3015,-0.3038,-0.3023,-0.3029,-0.3022,-0.3076,-0.3074,-0.3034,-0.3001,-0.2914,-0.3032,-0.283,-0.2823,-0.2682,-0.2561,-0.2447,-0.2192,-0.2679,-0.2675,-0.2672,0,-0.2704,-0.2774,-0.2793,-0.2879,-0.2884,-0.2892,-0.2921,-0.2941,-0.2939,-0.2941,-0.2933,-0.2952,-0.2917,-0.2956,-0.283,-0.2903,-0.2827,-0.2782,-0.277,-0.2643,-0.2645,-0.2306,-0.2135,-0.2637,-0.2639,-0.2642,-0.2644,0,-0.2631,-0.2702,-0.2736,-0.2774,-0.287,-0.2855,-0.2887,-0.2897,-0.2893,-0.2886,-0.2858,-0.2842,-0.28,-0.2735,-0.268,-0.2742,-0.2498,-0.2565,-0.2345,-0.2334,-0.2197,-0.2178,-0.2419,-0.2419,-0.242,-0.2421,-0.2421,0,-0.2606,-0.2598,-0.2704,-0.2732,-0.2745,-0.2807,-0.2782,-0.2806,-0.2799,-0.276,-0.2809,-0.2742,-0.2743,-0.2636,-0.2599,-0.2378,-0.2417,-0.2289,-0.2241,-0.2176,-0.2159,-0.2543,-0.2561,-0.2411,-0.2413,-0.2415,-0.2417,0,-0.247,-0.2552,-0.2597,-0.2697,-0.2713,-0.2705,-0.2727,-0.2707,-0.2716,-0.2655,-0.2648,-0.2622,-0.2476,-0.2431,-0.2286,-0.2223,-0.2072,-0.198,-0.1887,-0.1833,-0.1974,-0.1993,-0.1688,-0.1681,-0.1675,-0.1669,-0.1665,0,-0.2397,-0.2422,-0.2536,-0.255,-0.2579,-0.2593,-0.2588,-0.2644,-0.2618,-0.2561,-0.2502,-0.2379,-0.224,-0.1962,-0.1852,-0.1666,-0.1821,-0.1447,-0.1551,-0.1906,-0.1891,-0.1921,-0.1948,-0.134,-0.1334,-0.1328,-0.1324,0,-0.2283,-0.2314,-0.2369,-0.2416,-0.2426,-0.245,-0.2448,-0.2436,-0.2464,-0.2398,-0.2257,-0.2141,-0.1865,-0.163,-0.1411,-0.1299,-0.1484,-0.1324,-0.1668,-0.1559,-0.156,-0.1553,-0.1594,-0.1275,-0.128,-0.1283,-0.1286,-0.1288,-0.2162,-0.2171,-0.2249,-0.2264,-0.2282,-0.2286,-0.2258,-0.2253,-0.2202,-0.2062,-0.2012,-0.1754,-0.164,-0.1227,-0.1067,-0.0934,-0.1062,-0.1037,-0.1061,-0.109,-0.1112,-0.1103,-0.0734,-0.0735,-0.0737,-0.0738,-0.0739,0,-0.2068,-0.2076,-0.2089,-0.2135,-0.2103,-0.2143,-0.2137,-0.2079,-0.1978,-0.1817,-0.1637,-0.1312,-0.1085,-0.0968,-0.0708,-0.0599,-0.0643,-0.054,-0.0683,-0.0729,-0.0771,-0.0787,-0.0317,-0.0316,-0.0314,-0.0313,0,0,-0.2026,-0.2021,-0.204,-0.196,-0.1944,-0.1881,-0.1857,-0.176,-0.1641,-0.1379,-0.118,-0.1086,-0.1003,-0.0752,-0.062,-0.0463,-0.0594,-0.0378,-0.0718,-0.094,-0.0982,-0.1044,-0.1116,0,0,0,0,0]},{"header":{"parameterUnit":"m.s-1","parameterCategory":2,"la1":30.2991,"la2":30.254,"lo1":-89.0895,"lo2":-89.0444,"dy":0.0017,"dx":0.0017,"nx":28,"ny":28,"refTime":"2024-08-14T03:00:00:Z","depth":"2","parameterNumber":3,"parameterNumberName":"V-component_of_CURRENTS"},"data":[0,0,0,0,0,0,0,0,0,0,0,0,0,0,0,0,0,0,0,0,0,0,0,0,0,0,0,0,0,0,0,0,0,0,0,0,0,0,0,0,0,0,0,0,0,0,0,0,0,0,0,0,0,0,0,0,0,0,0.0678,0.0682,0,0.0994,0.0998,0.1002,0.1119,0.1118,0.1117,0.1116,0.129,0.1296,0.1301,0,0,0,0,0,0,0,0,0,0,0,0,0,0.0257,0.0264,0.0678,0.0682,0.0686,0.0994,0.0998,0.1002,0.1119,0.1118,0.1117,0.1116,0.1289,0.1295,0.1302,0,0,0,0,0,0,0,0,0,0,0,0,0,0.0492,0.0266,0.0677,0.0782,0.0795,0.0993,0.0998,0.1004,0.112,0.1118,0.1117,0.1115,0.1286,0.1294,0.1303,0.1381,0,0,0.1328,0.1331,0,0,0,0,0,0,0,0,0.0479,0.0507,0.0763,0.0775,0.079,0.1017,0.0914,0.1123,0.112,0.0995,0.1116,0.1115,0.1187,0.1204,0.1267,0.139,0.1397,0.1328,0.1333,0.1337,0.1339,0,0,0,0,0,0,0,0.0462,0.0495,0.0802,0.0767,0.0784,0.0842,0.0873,0.0955,0.1092,0.1006,0.1016,0.1053,0.1193,0.1259,0.1271,0.14,0.1328,0.1336,0.1341,0.1344,0.1477,0.1476,0,0,0,0,0,0,0.0424,0.048,0.0792,0.0812,0.0629,0.085,0.0885,0.0945,0.1094,0.1118,0.1054,0.1057,0.1246,0.1262,0.1278,0.1284,0.1337,0.1345,0.1349,0.1478,0.1477,0.1475,0,0,0,0,0,0,0.0414,0.0449,0.078,0.0652,0.0698,0.0858,0.0925,0.0952,0.0991,0.1132,0.1152,0.1062,0.1245,0.1266,0.1316,0.1294,0.1348,0.1356,0.148,0.1478,0.1476,0.1357,0,0,0,0,0,0,0.0401,0.0445,0.0453,0.065,0.0704,0.0866,0.0927,0.0959,0.1019,0.1025,0.1147,0.1164,0.1246,0.1303,0.1325,0.1307,0.1362,0.1482,0.1479,0.1477,0.1362,0.1351,0.1341,0,0,0,0,0,0.0385,0.0406,0.0452,0.0489,0.0719,0.0865,0.0897,0.1005,0.1019,0.1035,0.1105,0.1159,0.1301,0.131,0.1335,0.1319,0.1483,0.148,0.1477,0.1367,0.1353,0.1341,0,0,0,0,0,0,0.0207,0.0426,0.048,0.056,0.0685,0.0884,0.0899,0.0983,0.106,0.1041,0.116,0.1183,0.1213,0.1279,0.1286,0.1344,0.1394,0.1395,0.1301,0.1289,0.1279,0.1262,0.1369,0,0,0,0,0,0.0178,0.0256,0.0455,0.0504,0.0554,0.0717,0.078,0.0864,0.0972,0.1005,0.109,0.1163,0.123,0.1265,0.1332,0.1379,0.1407,0.1377,0.1366,0.1356,0.1356,0.1395,0.1388,0.1465,0.1465,0.1465,0,0,0.012,0.0246,0.0287,0.0471,0.0563,0.0643,0.0748,0.0829,0.0888,0.1008,0.106,0.1127,0.123,0.1276,0.1294,0.1324,0.1334,0.1352,0.1344,0.135,0.1391,0.1384,0.1378,0.1463,0.1463,0.1463,0,0,0.0036,0.0146,0.0177,0.0278,0.0423,0.0551,0.0561,0.0739,0.0795,0.0873,0.0958,0.1017,0.1119,0.1207,0.126,0.1232,0.127,0.1226,0.1173,0.121,0.1204,0.12,0.1161,0.1154,0.1228,0.1228,0.1227,0,-0.0059,0.0049,0.0197,0.0243,0.0321,0.0494,0.0538,0.0635,0.0802,0.0848,0.0851,0.1022,0.1096,0.1194,0.117,0.1212,0.1201,0.1216,0.1196,0.1192,0.119,0.1153,0.1147,0.1222,0.1222,0.1223,0.1223,0,-0.009,-0.0024,-0.0012,0.0132,0.0218,0.0289,0.0454,0.0518,0.0598,0.0713,0.0797,0.0913,0.1015,0.104,0.1094,0.1124,0.1105,0.117,0.1227,0.1175,0.1138,0.1134,0.1213,0.1215,0.1217,0.1218,0,0,-0.0243,-0.0059,-0.0065,-0.0009,0.018,0.0257,0.0328,0.0487,0.0534,0.0651,0.0717,0.0832,0.0892,0.0954,0.104,0.1077,0.1025,0.1089,0.1094,0.1046,0.1025,0.1057,0.1056,0.1072,0.1072,0.1072,0.0982,0,-0.031,-0.024,-0.012,-0.0059,0.0009,0.0172,0.0232,0.037,0.0492,0.0584,0.072,0.0797,0.0864,0.089,0.0939,0.1027,0.1018,0.1039,0.1088,0.1088,0.1123,0.1057,0.1046,0.0971,0.0979,0.0978,0.0978,0,-0.0372,-0.0291,-0.0248,-0.0099,-0.0068,-0.0029,0.0126,0.0207,0.0377,0.0444,0.0561,0.0684,0.0781,0.0821,0.0924,0.092,0.0933,0.0988,0.0988,0.1068,0.1117,0.1039,0.0964,0.0972,0.0973,0.0973,0.0973,0,-0.0504,-0.0383,-0.034,-0.0289,-0.0111,-0.0102,-0.0022,0.0139,0.0212,0.0347,0.0401,0.056,0.0615,0.0701,0.0817,0.0847,0.0896,0.097,0.1004,0.1003,0.1035,0.1039,0.0987,0.0987,0.0987,0.0987,0.0988,0,-0.0573,-0.0553,-0.0417,-0.0394,-0.0358,-0.0233,-0.0193,-0.0095,0.0032,0.0115,0.0294,0.0379,0.0579,0.0675,0.0762,0.0859,0.0845,0.0971,0.0995,0.0986,0.0986,0.1047,0.1056,0.0984,0.0985,0.0985,0.0986,0,-0.0729,-0.0633,-0.058,-0.0451,-0.0419,-0.0419,-0.0305,-0.0256,-0.0155,-0.0048,-0.0017,0.0208,0.033,0.0517,0.0652,0.0776,0.0879,0.0895,0.0834,0.0856,0.0961,0.0964,0.0941,0.0942,0.0942,0.0943,0.0943,0,-0.079,-0.078,-0.0665,-0.0637,-0.0595,-0.0558,-0.0511,-0.0384,-0.031,-0.0136,-0.0086,0.006,0.0207,0.0418,0.068,0.084,0.0809,0.0866,0.097,0.0936,0.0962,0.0964,0.0966,0.0918,0.0918,0.0918,0.0918,0,-0.0897,-0.0881,-0.0827,-0.077,-0.0737,-0.0664,-0.0598,-0.056,-0.0398,-0.0315,-0.0191,-0.0078,0.0206,0.0463,0.0696,0.0784,0.0869,0.0877,0.0856,0.0958,0.0916,0.0941,0.0943,0.0919,0.0919,0.0919,0.0919,0.0919,-0.0991,-0.0989,-0.0925,-0.0876,-0.0828,-0.0765,-0.0715,-0.0627,-0.0539,-0.0382,-0.0287,-0.0059,0.0204,0.0643,0.0723,0.0863,0.0946,0.0952,0.095,0.0949,0.099,0.0956,0.0967,0.0967,0.0967,0.0967,0.0967,0,-0.1053,-0.1037,-0.101,-0.093,-0.0893,-0.0847,-0.0736,-0.0673,-0.0583,-0.042,-0.0311,0.002,0.0312,0.0544,0.0851,0.0983,0.0954,0.0877,0.0844,0.0847,0.0848,0.0881,0.083,0.0829,0.0827,0.0826,0,0,-0.1076,-0.1069,-0.1041,-0.0987,-0.0944,-0.0861,-0.0797,-0.0724,-0.0574,-0.043,-0.0199,0.0062,0.0444,0.0579,0.0693,0.0779,0.0735,0.0727,0.0845,0.0793,0.079,0.0925,0.0985,0,0,0,0,0]}],[{"header":{"parameterUnit":"m.s-1","parameterCategory":2,"la1":30.2991,"la2":30.254,"lo1":-89.0895,"lo2":-89.0444,"dy":0.0017,"dx":0.0017,"nx":28,"ny":28,"refTime":"2024-08-14T03:00:00:Z","depth":"4","parameterNumber":2,"parameterNumberName":"U-component_of_CURRENTS"},"data":[0,0,0,0,0,0,0,0,0,0,0,0,0,0,0,0,0,0,0,0,0,0,0,0,0,0,0,0,0,0,0,0,0,0,0,0,0,0,0,0,0,0,0,0,0,0,0,0,0,0,0,0,0,0,0,0,0,0,-0.1128,-0.1128,0,-0.1209,-0.121,-0.1211,-0.1191,-0.1189,-0.1187,-0.1186,-0.1321,-0.1326,-0.1331,0,0,0,0,0,0,0,0,0,0,0,0,0,-0.1053,-0.1054,-0.1128,-0.1128,-0.1129,-0.1209,-0.121,-0.1212,-0.1191,-0.1189,-0.1187,-0.1185,-0.1319,-0.1325,-0.1332,0,0,0,0,0,0,0,0,0,0,0,0,0,-0.1107,-0.1055,-0.1127,-0.1127,-0.1127,-0.1209,-0.121,-0.1212,-0.1192,-0.1189,-0.1186,-0.1184,-0.1317,-0.1325,-0.1333,-0.1437,0,0,-0.1357,-0.1361,0,0,0,0,0,0,0,0,-0.1104,-0.111,-0.1126,-0.1127,-0.1128,-0.1185,-0.1234,-0.1289,-0.1192,-0.117,-0.1186,-0.1182,-0.1281,-0.1292,-0.1316,-0.1443,-0.1449,-0.1358,-0.1363,-0.1366,-0.1368,0,0,0,0,0,0,0,-0.11,-0.1107,-0.1162,-0.1127,-0.1128,-0.1156,-0.116,-0.1245,-0.1243,-0.1172,-0.117,-0.1176,-0.1282,-0.1308,-0.1319,-0.1451,-0.1358,-0.1365,-0.137,-0.1373,-0.1608,-0.161,0,0,0,0,0,0,-0.1083,-0.1104,-0.116,-0.1165,-0.1106,-0.1159,-0.1164,-0.1171,-0.1241,-0.1247,-0.1178,-0.1174,-0.1296,-0.131,-0.1324,-0.1421,-0.1366,-0.1373,-0.1378,-0.1607,-0.1609,-0.161,0,0,0,0,0,0,-0.1082,-0.1088,-0.1157,-0.1134,-0.1144,-0.1162,-0.1172,-0.1174,-0.1218,-0.1244,-0.1252,-0.122,-0.1294,-0.1313,-0.1396,-0.1427,-0.1377,-0.1384,-0.1605,-0.1608,-0.161,-0.1636,0,0,0,0,0,0,-0.1079,-0.1087,-0.1098,-0.1133,-0.1144,-0.1198,-0.1174,-0.1178,-0.1223,-0.122,-0.1284,-0.1291,-0.1294,-0.1384,-0.1404,-0.1437,-0.1391,-0.1603,-0.1606,-0.1609,-0.1633,-0.1639,-0.1644,0,0,0,0,0,-0.1076,-0.1092,-0.1099,-0.1106,-0.1156,-0.1198,-0.1208,-0.1213,-0.1228,-0.1246,-0.1288,-0.129,-0.1414,-0.1393,-0.1416,-0.1452,-0.1602,-0.1605,-0.1609,-0.1631,-0.1638,-0.1643,0,0,0,0,0,0,-0.1059,-0.1093,-0.11,-0.1124,-0.1157,-0.1193,-0.1217,-0.1244,-0.1297,-0.1301,-0.1333,-0.1345,-0.1434,-0.1446,-0.1421,-0.1524,-0.1502,-0.151,-0.1511,-0.1518,-0.1523,-0.1489,-0.1397,0,0,0,0,0,-0.1065,-0.1086,-0.1122,-0.1142,-0.1164,-0.1208,-0.1235,-0.1245,-0.129,-0.1311,-0.1365,-0.1413,-0.1469,-0.1492,-0.1551,-0.1624,-0.1612,-0.1654,-0.1659,-0.1663,-0.165,-0.1673,-0.1678,-0.1621,-0.1621,-0.1621,0,0,-0.1061,-0.1084,-0.1095,-0.1141,-0.1173,-0.1212,-0.1218,-0.1262,-0.1295,-0.1325,-0.1409,-0.1463,-0.1501,-0.1565,-0.1603,-0.1574,-0.1672,-0.1667,-0.1671,-0.1654,-0.1677,-0.1682,-0.1686,-0.1624,-0.1623,-0.1623,0,0,-0.1059,-0.1093,-0.111,-0.1146,-0.1195,-0.1229,-0.1252,-0.1319,-0.1344,-0.1438,-0.1456,-0.1502,-0.1628,-0.1614,-0.1633,-0.1706,-0.1719,-0.1756,-0.1738,-0.1761,-0.1765,-0.1769,-0.1747,-0.1749,-0.1733,-0.1733,-0.1733,0,-0.1048,-0.1078,-0.1122,-0.1153,-0.1185,-0.1244,-0.1277,-0.1324,-0.1409,-0.1438,-0.1461,-0.1606,-0.1629,-0.1669,-0.1678,-0.1713,-0.1737,-0.171,-0.1766,-0.1769,-0.1772,-0.1749,-0.1751,-0.1735,-0.1734,-0.1734,-0.1734,0,-0.1064,-0.1092,-0.1112,-0.117,-0.1216,-0.1255,-0.132,-0.138,-0.1448,-0.1489,-0.1583,-0.1623,-0.1685,-0.1708,-0.172,-0.1759,-0.1773,-0.179,-0.1743,-0.1779,-0.1753,-0.1754,-0.1737,-0.1736,-0.1736,-0.1736,0,0,-0.1029,-0.1101,-0.1113,-0.1131,-0.1228,-0.1261,-0.1336,-0.1404,-0.1443,-0.154,-0.1596,-0.1666,-0.17,-0.172,-0.1745,-0.1747,-0.1771,-0.1785,-0.1786,-0.1751,-0.1824,-0.1681,-0.1668,-0.1834,-0.1835,-0.1836,-0.1791,0,-0.1025,-0.1063,-0.1118,-0.1171,-0.12,-0.1279,-0.1351,-0.1421,-0.1487,-0.1562,-0.1604,-0.1683,-0.1703,-0.1743,-0.1755,-0.179,-0.178,-0.178,-0.1804,-0.1803,-0.1663,-0.1665,-0.1838,-0.1791,-0.1791,-0.1791,-0.1791,0,-0.1031,-0.1054,-0.1096,-0.1165,-0.1191,-0.1241,-0.134,-0.141,-0.1511,-0.1567,-0.1634,-0.1697,-0.1729,-0.1751,-0.1785,-0.181,-0.1815,-0.182,-0.1819,-0.1672,-0.1662,-0.1754,-0.1792,-0.1792,-0.1792,-0.1792,-0.1792,0,-0.0976,-0.1042,-0.1069,-0.1096,-0.1195,-0.1233,-0.1305,-0.141,-0.144,-0.1569,-0.1611,-0.169,-0.173,-0.1774,-0.1782,-0.1817,-0.1808,-0.1843,-0.1702,-0.1691,-0.1822,-0.1819,-0.1848,-0.1848,-0.1849,-0.1849,-0.1849,0,-0.094,-0.0965,-0.1044,-0.1051,-0.1107,-0.1205,-0.127,-0.1346,-0.1427,-0.1453,-0.1613,-0.1623,-0.1752,-0.1767,-0.1786,-0.1723,-0.1804,-0.168,-0.1669,-0.1833,-0.1832,-0.1821,-0.1819,-0.1847,-0.1847,-0.1848,-0.1848,0,-0.0876,-0.0923,-0.0951,-0.1038,-0.1075,-0.1121,-0.1216,-0.1239,-0.1364,-0.1396,-0.144,-0.1563,-0.1606,-0.1674,-0.1711,-0.1683,-0.1658,-0.1612,-0.1741,-0.1742,-0.1528,-0.1528,-0.1459,-0.1453,-0.1449,-0.1445,-0.1442,0,-0.0847,-0.0862,-0.0928,-0.0933,-0.0968,-0.1049,-0.1096,-0.1201,-0.1194,-0.1321,-0.1299,-0.1392,-0.1471,-0.1406,-0.1506,-0.1512,-0.1507,-0.1487,-0.154,-0.1491,-0.1488,-0.1495,-0.1501,-0.1434,-0.1433,-0.1432,-0.1431,0,-0.0802,-0.0834,-0.0847,-0.0857,-0.0881,-0.0902,-0.0948,-0.0928,-0.1046,-0.1143,-0.1132,-0.1186,-0.1226,-0.1289,-0.1303,-0.1311,-0.1507,-0.144,-0.1451,-0.15,-0.1461,-0.1464,-0.1475,-0.1415,-0.1417,-0.1419,-0.142,0,-0.0782,-0.0771,-0.0785,-0.0787,-0.0785,-0.0741,-0.0797,-0.0792,-0.0815,-0.0932,-0.0905,-0.1055,-0.1155,-0.1177,-0.1177,-0.1188,-0.1199,-0.1189,-0.1213,-0.1232,-0.1189,-0.1107,-0.0921,0,0,0,0,0,-0.0756,-0.0724,-0.0714,-0.0676,-0.065,-0.0647,-0.0683,-0.0737,-0.0834,-0.077,-0.0826,-0.086,-0.0923,-0.0994,-0.0967,-0.1102,-0.1213,-0.1068,-0.1215,-0.1326,-0.1345,-0.1321,0,0,0,0,0,0,-0.0725,-0.0713,-0.0692,-0.0581,-0.0524,-0.0488,-0.0504,-0.0572,-0.0543,-0.0655,-0.0688,-0.0779,-0.0851,-0.0906,-0.0936,-0.0957,-0.1027,-0.1139,-0.1136,-0.1316,-0.1333,-0.1347,-0.1329,0,0,0,0,0]},{"header":{"parameterUnit":"m.s-1","parameterCategory":2,"la1":30.2991,"la2":30.254,"lo1":-89.0895,"lo2":-89.0444,"dy":0.0017,"dx":0.0017,"nx":28,"ny":28,"refTime":"2024-08-14T03:00:00:Z","depth":"4","parameterNumber":3,"parameterNumberName":"V-component_of_CURRENTS"},"data":[0,0,0,0,0,0,0,0,0,0,0,0,0,0,0,0,0,0,0,0,0,0,0,0,0,0,0,0,0,0,0,0,0,0,0,0,0,0,0,0,0,0,0,0,0,0,0,0,0,0,0,0,0,0,0,0,0,0,-0.0338,-0.0338,0,-0.0343,-0.0344,-0.0344,-0.0377,-0.0378,-0.0378,-0.0378,-0.0325,-0.0323,-0.0321,0,0,0,0,0,0,0,0,0,0,0,0,0,-0.0356,-0.0356,-0.0338,-0.0338,-0.0337,-0.0343,-0.0344,-0.0344,-0.0377,-0.0378,-0.0378,-0.0379,-0.0325,-0.0323,-0.0321,0,0,0,0,0,0,0,0,0,0,0,0,0,-0.0358,-0.0356,-0.0338,-0.0351,-0.0352,-0.0343,-0.0344,-0.0344,-0.0377,-0.0378,-0.0378,-0.0379,-0.0326,-0.0323,-0.0321,-0.0293,0,0,-0.0313,-0.0311,0,0,0,0,0,0,0,0,-0.0358,-0.0358,-0.035,-0.035,-0.0351,-0.0356,-0.033,-0.0322,-0.0377,-0.0372,-0.0378,-0.0379,-0.0326,-0.0324,-0.0331,-0.029,-0.0288,-0.0312,-0.0311,-0.031,-0.0309,0,0,0,0,0,0,0,-0.0357,-0.0357,-0.0345,-0.0349,-0.035,-0.0356,-0.0357,-0.0329,-0.0349,-0.0373,-0.0374,-0.0367,-0.0327,-0.0333,-0.0329,-0.0287,-0.0312,-0.031,-0.0308,-0.0307,-0.0272,-0.0272,0,0,0,0,0,0,-0.0347,-0.0357,-0.0345,-0.0344,-0.0351,-0.0355,-0.0357,-0.0358,-0.035,-0.0349,-0.0367,-0.0369,-0.0338,-0.0333,-0.0328,-0.0355,-0.031,-0.0307,-0.0306,-0.0271,-0.0272,-0.0273,0,0,0,0,0,0,-0.0347,-0.0346,-0.0344,-0.0347,-0.0347,-0.0353,-0.0355,-0.0357,-0.037,-0.0345,-0.0344,-0.0377,-0.0338,-0.0331,-0.0331,-0.0351,-0.0306,-0.0303,-0.027,-0.0271,-0.0272,-0.037,0,0,0,0,0,0,-0.0348,-0.0346,-0.0358,-0.0346,-0.0346,-0.0353,-0.0354,-0.0357,-0.0362,-0.0365,-0.0353,-0.0349,-0.0338,-0.0335,-0.0328,-0.0346,-0.0301,-0.027,-0.0271,-0.0272,-0.0366,-0.0375,-0.0382,0,0,0,0,0,-0.0349,-0.0366,-0.0359,-0.0357,-0.0357,-0.0353,-0.0355,-0.0364,-0.0362,-0.0377,-0.0377,-0.0349,-0.0338,-0.0334,-0.0326,-0.0343,-0.0269,-0.027,-0.0272,-0.0363,-0.0373,-0.0381,0,0,0,0,0,0,-0.0385,-0.037,-0.0362,-0.0375,-0.0366,-0.0357,-0.0371,-0.0365,-0.0376,-0.038,-0.0359,-0.0356,-0.036,-0.0333,-0.0329,-0.0335,-0.0297,-0.0297,-0.0369,-0.0378,-0.0386,-0.0384,-0.0299,0,0,0,0,0,-0.0393,-0.0398,-0.038,-0.0389,-0.0387,-0.0376,-0.0378,-0.0378,-0.0376,-0.0382,-0.0371,-0.036,-0.0357,-0.0355,-0.034,-0.0341,-0.0262,-0.0345,-0.0352,-0.0359,-0.0352,-0.0241,-0.0238,-0.0278,-0.0278,-0.0278,0,0,-0.0406,-0.0398,-0.0402,-0.0396,-0.0392,-0.0404,-0.0381,-0.0385,-0.0398,-0.037,-0.0391,-0.038,-0.0361,-0.0376,-0.0375,-0.036,-0.0309,-0.0361,-0.0368,-0.0356,-0.0242,-0.0238,-0.0234,-0.0279,-0.0278,-0.0278,0,0,-0.0431,-0.0429,-0.0441,-0.044,-0.043,-0.0428,-0.0428,-0.0419,-0.0422,-0.0429,-0.0422,-0.0432,-0.0409,-0.0422,-0.0419,-0.0453,-0.0349,-0.0437,-0.0482,-0.0376,-0.0371,-0.0366,-0.027,-0.0255,-0.0447,-0.0447,-0.0448,0,-0.0451,-0.0462,-0.0445,-0.0458,-0.0467,-0.0441,-0.0463,-0.046,-0.0454,-0.0454,-0.0445,-0.0438,-0.0436,-0.0458,-0.0488,-0.0473,-0.038,-0.0455,-0.0385,-0.0378,-0.0371,-0.0272,-0.0255,-0.0452,-0.0452,-0.0451,-0.0451,0,-0.0474,-0.0496,-0.0504,-0.0516,-0.0526,-0.0538,-0.0528,-0.0531,-0.0523,-0.0517,-0.0519,-0.0516,-0.0513,-0.052,-0.0522,-0.0491,-0.043,-0.0402,-0.0361,-0.0372,-0.0269,-0.0249,-0.0459,-0.0458,-0.0456,-0.0455,0,0,-0.0487,-0.0518,-0.0523,-0.0548,-0.056,-0.057,-0.0588,-0.0596,-0.0607,-0.0589,-0.0595,-0.0614,-0.0596,-0.0591,-0.0585,-0.0516,-0.0419,-0.0444,-0.0436,-0.0348,-0.016,-0.0171,-0.0149,-0.0353,-0.035,-0.0348,-0.0111,0,-0.0513,-0.0557,-0.0567,-0.0623,-0.0648,-0.0646,-0.0672,-0.0674,-0.0663,-0.0661,-0.0635,-0.0644,-0.0625,-0.0636,-0.0563,-0.0449,-0.0366,-0.0484,-0.0162,-0.0153,-0.016,-0.0127,-0.0338,-0.0096,-0.0091,-0.0088,-0.0085,0,-0.0532,-0.0561,-0.0619,-0.0682,-0.0695,-0.0732,-0.0763,-0.078,-0.0764,-0.0752,-0.0732,-0.0698,-0.0646,-0.0614,-0.039,-0.0449,-0.0315,-0.0213,-0.02,-0.0157,-0.0126,-0.0077,-0.0047,-0.005,-0.0053,-0.0056,-0.0058,0,-0.0537,-0.0603,-0.0655,-0.0674,-0.0734,-0.0768,-0.0803,-0.0811,-0.082,-0.0808,-0.0798,-0.0715,-0.067,-0.0478,-0.0294,-0.0315,-0.0002,-0.0006,0.0117,0.0118,0.01,0.0093,0.018,0.018,0.0179,0.0179,0.0178,0,-0.0556,-0.0603,-0.0669,-0.0695,-0.0772,-0.0803,-0.0868,-0.088,-0.0885,-0.0885,-0.0849,-0.081,-0.062,-0.0439,-0.0261,-0.0,0.0038,0.0129,0.0186,0.005,0.0034,0.0115,0.0104,0.0187,0.0186,0.0184,0.0182,0,-0.0555,-0.0594,-0.0661,-0.0741,-0.0776,-0.083,-0.0915,-0.0938,-0.0947,-0.0935,-0.0931,-0.0833,-0.0593,-0.0378,-0.0066,0.0033,0.0277,0.0358,0.0206,0.0248,0.0319,0.0301,0.0522,0.0524,0.0525,0.0527,0.0528,0,-0.0557,-0.0589,-0.0688,-0.0735,-0.0782,-0.0868,-0.0916,-0.0962,-0.0961,-0.0935,-0.09,-0.0729,-0.0627,-0.0183,0.0018,0.0377,0.04,0.0493,0.0385,0.0325,0.0359,0.0337,0.0317,0.053,0.053,0.0531,0.0531,0,-0.0564,-0.06,-0.0653,-0.0739,-0.081,-0.0881,-0.0939,-0.0941,-0.0957,-0.097,-0.0844,-0.069,-0.0425,-0.0151,0.0123,0.0364,0.0408,0.0508,0.0506,0.0406,0.0338,0.0364,0.0343,0.0536,0.0536,0.0535,0.0535,0,-0.0567,-0.0606,-0.0667,-0.0743,-0.0819,-0.0854,-0.0904,-0.0887,-0.0891,-0.0846,-0.0797,-0.0584,-0.0469,-0.0152,0.0107,0.0337,0.0365,0.0369,0.0373,0.037,0.0224,0.0109,0.0307,0,0,0,0,0,-0.0565,-0.0603,-0.0669,-0.0742,-0.0803,-0.0843,-0.0888,-0.0915,-0.0925,-0.0822,-0.0808,-0.0566,-0.0253,-0.0132,0.0113,0.0134,0.0406,0.0414,0.0413,0.0565,0.0559,0.0409,0,0,0,0,0,0,-0.0572,-0.0624,-0.0656,-0.0707,-0.075,-0.0809,-0.0836,-0.0849,-0.0778,-0.0771,-0.0571,-0.0551,-0.0197,-0.0354,0.0113,0.0171,0.0184,0.0558,0.0561,0.0568,0.0563,0.0558,0.0401,0,0,0,0,0]}]]